Preview of NWS' New Version of Forecast
This preview is not operational and should not be used for support decisions.

Regional Weather Roundup (RWR)

Issued by National Weather Service (NWS)

                            
000
ASUS44 KMEG 250710
RWRTN 
TENNESSEE HOURLY STATE WEATHER ROUNDUP
NATIONAL WEATHER SERVICE MEMPHIS TN
200 AM CDT MON MAR 25 2019

TNZ002-004-019-021-049-052-054-088>092-250800-
WEST TENNESSEE
  
CITY           SKY/WX    TMP DP  RH WIND       PRES   REMARKS
MEMPHIS INTL   CLOUDY    56  52  86 VRB6      30.02F THUNDER          
NWS MEMPHIS      N/A     56 N/A N/A MISG        N/A                   
JACKSON        TSTM      58  50  75 SW13G24   29.99S                  
DYERSBURG      FAIR      62  52  69 W15G23    29.95F                  
SOMERVILLE     CLOUDY    57  55  94 CALM      30.00F                  
COVINGTON      PTCLDY    57  55  94 SW7       29.96F                  
UNION CITY     MOCLDY    61  54  77 SW7       29.93F                  
BOLIVAR        CLOUDY    57  52  82 SW10G18   30.03R HAZE             
PARIS          CLOUDY    61  48  63 SW8       29.94F                  
HUNTINGDON     CLOUDY    57  52  82 CALM      29.94F                  
LEXINGTON      CLOUDY    61  43  51 S9        29.96F                  
SELMER         MOCLDY    61  43  51 SW6       29.98F                  
SAVANNAH       MOCLDY    61  45  55 S6        29.99F                  
$$

TNZ008-025-027-028-033-062-065-066-250800-
NORTH MIDDLE TENNESSEE
  
CITY           SKY/WX    TMP DP  RH WIND       PRES   REMARKS
NASHVILLE      CLOUDY    59  39  47 S7        29.98F                  
DICKSON        MOSUNNY   61  39  44 SW14G21   29.95F                  
CLARKSVILLE    MOCLDY    58  47  66 NW17G25   29.99R THUNDER          
LEBANON        CLOUDY    61  39  44 SW10G18   29.96F                  
SMYRNA         FAIR      55  43  63 SE3       30.00F                  
MURFREESBORO   CLOUDY    61  39  44 S8        29.98F                  
COOKEVILLE     PTCLDY    52  37  58 S5        30.01F                  
GALLATIN       CLOUDY    61  41  48 S3        30.00F                  
CROSSVILLE     FAIR      55  33  43 CALM      30.04F                  
ROCKWOOD       SUNNY     54  34  47 SW6       30.04F                  
$$

TNZ061-075-076-078-094-096-097-250800-
SOUTH MIDDLE TENNESSEE
  
CITY           SKY/WX    TMP DP  RH WIND       PRES   REMARKS
LAWRENCEBURG   CLOUDY    57  39  51 CALM      30.00F                  
LEWISBURG      MOSUNNY   63  37  39 S10       29.99F                  
FAYETTEVILLE   PTCLDY    57  39  51 S6        30.03F                  
TULLAHOMA      MOCLDY    54  39  58 S7        30.02F                  
WINCHESTER     CLEAR     48  41  76 SE5       30.03F                  
MCMINNVILLE    CLOUDY    57  37  47 SW3       30.02F                  
COLUMBIA       PTCLDY    61  39  44 S10       29.97F                  
SHELBYVILLE    MOCLDY    55  39  54 S7        30.00F                  
$$

TNZ017-018-042-046-047-250800-
NORTHEAST TENNESSEE
  
CITY           SKY/WX    TMP DP  RH WIND       PRES   REMARKS
TRI CITIES     FAIR      43  33  68 CALM      30.07F                  
ELIZABETHTON   CLOUDY    43  34  70 CALM      30.08F                  
GREENEVILLE    SUNNY     57  30  35 S7        30.06S                  
$$

TNZ012-013-036-069-073-074-250800-
CENTRAL EAST TENNESSEE
  
CITY           SKY/WX    TMP DP  RH WIND       PRES   REMARKS
KNOXVILLE      MOCLDY    53  37  54 CALM      30.03F                  
OAK RIDGE      FAIR      48  38  68 CALM      30.05F                  
DOWNTOWN KNOXV PTCLDY    45  43  93 CALM      30.05F                  
GATLINBURG     CLEAR     46  37  71 CALM      30.05F                  
MORRISTOWN     PTCLDY    48  36  61 CALM      30.04F                  
JACKSBORO      PTCLDY    45  37  76 CALM      30.07F                  
$$

TNZ083-085-099-250800-
SOUTHEAST TENNESSEE
  
CITY           SKY/WX    TMP DP  RH WIND       PRES   REMARKS
CHATTANOOGA    FAIR      52  44  74 CALM      30.05F                  
DAYTON         PTSUNNY   48  45  87 CALM      30.03F                  
$$

SKY/WX REPORTED AS FAIR MEANS FEW OR NO CLOUDS BELOW
12 THOUSAND FEET.